Home   Weather   Zielona Góra   Past weeks

Flag for Poland Past Weather in Zielona Góra, Poland — Yesterday and Last 2 Weeks

Now
47 °F

Light rain. Overcast.


Feels Like: 46 °F
Forecast: 37 / 52 °F
Wind: 5 mph from West

Location: Zielona Gora

Current Time: Feb 26, 2017 at 1:22:30 pm

Latest Report: Feb 26, 2017 at 12:00 pm


Visibility: 22 mi

Pressure: 29.86 "Hg

Humidity: 55%

Dew Point: 32 °F

Location of Zielona GóraLocation

Past Weather in Zielona Góra — Graph

°F

Zielona Góra Temperature Yesterday

Maximum temperature yesterday: 40 °F (at 3:00 pm)
Minimum temperature yesterday: 30 °F (at 3:00 am)
Average temperature yesterday: 34 °F

High & Low Weather Summary for the Past Weeks

 TemperatureHumidityPressure
High53 °F (Feb 16, 3:00 pm)100% (Feb 17, 7:00 am)30.71 "Hg (Feb 17, 7:00 am)
Low17 °F (Feb 13, 6:00 am)18% (Feb 15, 12:00 pm)29.18 "Hg (Feb 24, 12:00 am)
Average36 °F82%30.13 "Hg
* Reported Feb 11 12:00 pm — Feb 26 12:00 pm, Zielona Góra, Weather by CustomWeather, © 2017

Note: Actual official high and low records may vary slightly from our data, if they occured in-between our weather recording intervals... More about our weather records

Advertising

Zielona Góra Weather History for the Previous 24 Hours

Scroll right to see more
 ConditionsComfort  
Time TempWeatherWind HumidityBarometerVisibility
12:00 pm
Sun, Feb 26
47 °FLight rain. Overcast.5 mph55%29.86 "Hg22 mi
11:00 am46 °FOvercast.6 mph53%29.87 "Hg31 mi
10:00 am45 °FOvercast.7 mph54%29.88 "Hg31 mi
9:00 am43 °FOvercast.5 mph55%29.88 "Hg28 mi
8:00 am43 °FOvercast.5 mph55%29.89 "Hg28 mi
7:00 am42 °FOvercast.5 mph55%29.88 "Hg25 mi
6:00 am42 °FOvercast.6 mph57%29.88 "Hg31 mi
5:00 am42 °FOvercast.5 mph59%29.90 "Hg31 mi
4:00 am40 °FOvercast.5 mph67%29.93 "Hg31 mi
3:00 am40 °FOvercast.6 mph70%29.94 "Hg31 mi
2:00 am40 °FOvercast.5 mph75%29.96 "Hg31 mi
1:00 am40 °FOvercast.6 mph73%29.99 "Hg25 mi
12:00 am39 °FLight rain. Overcast.3 mph70%30.01 "Hg25 mi
11:00 pm
Sat, Feb 25
38 °FOvercast.5 mph72%30.02 "Hg28 mi
10:00 pm37 °FOvercast.3 mph75%30.04 "Hg28 mi
9:00 pm36 °FOvercast.3 mph75%30.06 "Hg25 mi
8:00 pm36 °FOvercast.3 mph76%30.09 "Hg25 mi
7:00 pm36 °FOvercast.2 mph74%30.11 "Hg25 mi
6:00 pm37 °FOvercast.2 mph71%30.11 "Hg25 mi
5:00 pm39 °FOvercast.2 mph65%30.12 "Hg31 mi
4:00 pm40 °FOvercast.5 mph64%30.12 "Hg31 mi
3:00 pm40 °FOvercast.3 mph64%30.13 "Hg25 mi
2:00 pm39 °FOvercast.5 mph64%30.14 "Hg25 mi
1:00 pm38 °FOvercast.3 mph70%30.16 "Hg25 mi
Weather by CustomWeather, © 2017

See weather overviewHow to use our weather pages

LIVE ANNULAR SOLAR ECLIPSE – Watch the eclipse as it happens